Wind_Speed
21 22 23 24 25 26 26 26 25 23 22 23 24 25 25 26 26 26 27 30 32 33 33 33 35 36 36 34 34 35 34 33 33 35 38 39 39 38 37 37 36 35 34 34 35 35 33 32 32 32 31 30 32 33 34 34 33 34 34 33 32 31 31 32 32 30 29 27 27 28 28 28 27 27 27 27 28 29 29 29 29 29 28 26 24 23 22
21 22 23 24 25 26 27 27 27 25 23 22 23 24 24 25 24 23 23 25 29 32 32 31 32 35 36 36 36 37 35 32 30 31 35 38 39 39 38 38 38 37 35 35 36 36 35 33 32 32 31 30 29 29 33 35 34 34 35 33 32 31 31 33 34 33 31 31 30 30 29 30 30 29 30 30 30 30 30 30 30 31 30 27 26 25 23
21 22 23 24 25 25 26 27 27 26 24 23 23 23 23 23 22 20 20 20 23 27 30 30 30 32 33 34 35 36 35 33 30 29 31 35 37 38 38 38 38 38 36 36 36 37 36 34 31 31 31 30 28 26 30 33 32 33 35 33 32 31 29 31 33 33 32 31 30 30 29 31 33 33 33 33 33 33 33 32 31 30 29 29 28 27 25
22 22 23 24 25 25 26 27 27 26 25 24 23 23 21 20 19 19 17 18 19 21 24 27 28 29 30 32 33 34 34 33 32 29 29 31 35 37 38 38 39 39 38 37 36 37 38 35 32 30 29 30 29 27 29 30 30 30 31 30 31 31 30 31 33 33 32 31 31 31 30 32 34 35 35 35 34 33 33 32 31 30 29 29 30 28 27
22 22 23 24 25 25 26 27 27 26 25 24 24 22 21 20 19 17 16 20 19 17 19 22 24 26 29 29 30 33 34 34 33 31 29 29 32 35 37 38 39 40 39 38 38 38 39 37 35 33 31 31 31 29 28 28 28 29 29 28 29 29 30 32 33 34 35 34 35 35 34 34 36 35 34 34 34 33 32 31 31 31 31 31 31 30 28
21 22 23 25 26 26 26 27 27 26 25 24 23 22 21 20 19 15 14 19 19 15 16 20 22 24 27 28 28 29 31 32 32 31 30 29 30 33 35 37 39 40 40 40 39 39 39 39 38 36 35 33 33 32 30 28 27 28 28 29 29 28 28 29 30 32 33 34 36 37 36 36 37 36 34 34 33 33 33 33 33 33 34 33 32 31 31
21 22 23 25 26 27 27 27 28 27 25 23 23 22 21 21 18 12 12 20 23 15 10 16 24 26 27 29 29 30 30 29 29 29 30 30 30 32 33 36 38 40 40 40 40 39 39 39 39 38 38 37 36 34 33 31 30 30 30 30 29 29 29 29 29 29 29 29 31 32 32 33 33 32 30 30 30 31 30 30 31 32 33 34 33 33 33
20 22 23 25 26 27 28 28 29 29 27 25 23 23 22 20 17 10 9 19 27 20 8 9 18 23 25 27 28 29 30 29 27 27 27 28 29 30 32 34 37 39 40 40 39 39 40 39 39 39 39 39 39 38 36 35 34 33 33 33 33 32 31 31 31 30 29 28 29 29 29 29 30 30 28 27 29 30 29 28 29 31 32 33 34 34 34
20 21 23 25 26 27 28 29 29 29 28 26 25 24 23 21 17 10 6 14 26 27 17 8 8 11 16 20 22 24 26 27 26 26 26 27 27 27 29 31 34 36 38 39 39 39 40 40 40 40 39 39 39 39 39 38 37 36 36 37 37 36 35 34 33 32 32 31 31 32 31 30 31 32 31 31 32 33 34 35 36 37 37 38 38 39 39
19 21 23 25 26 27 28 29 30 30 29 27 25 25 24 22 18 12 5 8 18 26 25 17 9 6 8 11 15 18 19 21 22 24 26 27 27 26 26 28 31 33 35 37 38 39 40 40 41 42 42 41 40 40 40 40 39 38 37 38 38 39 40 40 39 37 36 36 36 36 36 36 36 36 36 36 37 38 40 41 42 42 41 40 40 40 41
19 20 22 24 26 27 28 29 29 30 29 28 26 24 24 22 20 15 8 3 11 18 23 22 19 13 8 7 8 10 13 14 16 19 23 25 27 28 28 28 29 31 33 35 36 37 38 40 41 42 43 43 42 42 41 41 41 39 39 39 38 39 39 40 41 40 39 39 39 40 42 43 43 42 42 42 43 44 44 45 44 43 42 40 39 39 40
18 20 22 23 25 26 27 28 29 29 29 28 26 24 23 21 20 17 12 5 4 12 16 18 19 20 18 13 9 7 10 12 13 14 17 20 23 27 29 29 30 30 32 34 35 36 37 38 39 40 42 42 42 42 42 42 42 42 42 42 42 42 42 41 42 41 41 41 41 42 44 45 44 45 46 46 46 47 47 47 47 46 44 42 40 39 40
18 20 21 22 23 25 26 27 28 29 29 28 27 26 24 22 20 18 15 10 4 5 12 15 17 18 20 21 18 13 10 11 12 13 14 15 17 20 24 27 29 31 32 33 35 36 37 38 38 39 40 41 41 43 43 43 43 43 43 44 45 46 47 46 45 45 44 44 44 44 45 44 44 45 45 46 46 47 48 48 47 46 44 42 40 38 38
18 19 20 21 22 23 24 25 26 28 28 28 28 27 26 24 22 19 17 13 9 3 6 12 16 18 19 21 22 20 16 14 14 15 16 17 17 18 19 22 25 27 30 32 34 36 37 38 39 40 40 40 41 42 43 43 43 43 43 44 44 45 46 46 46 45 45 45 45 45 45 45 45 45 44 44 44 44 44 43 42 40 39 38 37 37 37
17 19 20 21 21 22 23 24 25 26 27 27 27 27 27 26 24 22 19 15 12 9 3 4 10 15 18 20 22 22 20 18 17 17 18 19 20 20 21 23 25 26 28 30 32 34 36 38 39 39 40 41 42 43 43 43 43 42 42 43 43 43 44 45 45 45 45 45 45 46 46 46 45 44 44 43 42 41 40 39 38 38 37 36 36 36 36
17 18 19 20 21 22 22 23 24 25 25 26 26 27 27 26 26 24 21 18 15 12 9 6 3 5 10 14 18 21 21 21 20 19 19 21 22 23 24 25 26 27 28 29 30 31 34 36 37 38 39 40 41 42 43 43 43 43 43 43 43 43 43 44 45 46 46 46 46 46 45 44 44 43 43 42 42 41 40 39 39 38 38 37 36 36 36
16 17 18 19 20 21 22 23 23 24 24 25 25 25 26 26 26 25 23 21 18 15 12 10 8 5 3 5 8 13 17 19 20 20 20 20 22 23 24 25 26 27 28 28 29 30 31 32 34 35 37 38 39 40 41 41 43 44 44 44 44 44 44 44 45 46 46 46 46 46 46 45 44 43 43 43 42 41 41 41 40 39 39 39 39 39 40
15 17 18 19 20 21 22 22 23 23 23 24 24 24 24 25 25 24 23 22 20 17 14 11 9 7 6 5 4 5 8 11 13 15 16 17 18 20 22 23 25 26 27 28 29 30 30 31 32 33 34 35 36 37 38 39 40 41 42 43 44 44 44 44 45 45 46 46 47 47 47 46 45 44 44 43 43 42 42 42 41 40 40 40 41 41 42
15 16 18 19 20 21 22 22 22 22 23 23 23 23 23 23 23 23 22 22 21 19 18 15 12 10 7 6 5 5 6 6 7 8 10 11 13 15 17 19 20 22 24 26 28 29 30 31 32 32 33 34 34 35 35 36 36 37 39 40 41 42 43 43 43 44 44 45 46 46 46 46 45 44 44 42 41 40 39 37 36 34 34 35 36 37 37
14 16 17 18 19 20 21 22 22 22 22 22 22 22 22 22 22 21 21 20 20 20 19 18 16 14 11 9 8 7 7 7 7 7 8 9 10 11 12 13 15 17 19 21 24 26 28 30 31 32 32 33 33 34 34 34 35 36 36 38 39 40 41 41 41 41 41 42 43 43 43 43 42 41 40 39 37 35 34 33 32 32 30 29 30 32 34
14 15 17 18 18 19 20 20 21 22 22 22 22 22 22 22 21 21 20 19 19 18 18 17 16 15 13 12 11 10 9 8 8 8 8 9 10 11 11 11 12 13 14 15 17 20 23 26 28 29 30 31 31 32 32 32 33 34 34 36 37 38 39 40 39 39 39 39 39 39 39 39 38 37 36 35 33 32 32 32 33 34 34 33 33 35 36
14 15 16 17 18 18 19 19 20 21 21 22 22 22 22 22 21 20 19 19 18 17 16 16 15 15 14 13 12 12 11 10 9 8 8 9 10 11 12 12 12 12 12 13 13 14 15 18 21 23 25 27 28 28 29 29 30 30 31 32 33 35 36 37 37 37 37 37 36 36 37 36 35 35 35 34 34 33 34 34 34 35 37 37 39 40 42
13 14 15 16 17 18 18 19 19 20 21 21 22 22 22 21 21 20 20 19 18 17 16 15 15 14 14 13 13 13 12 11 10 10 9 9 9 10 10 11 12 12 12 12 12 11 11 12 13 16 18 20 22 23 25 25 26 27 28 29 29 31 32 33 34 34 35 36 36 36 35 35 34 34 34 34 35 36 37 38 39 39 38 38 39 41 42
13 14 15 15 16 17 18 19 19 19 20 20 21 21 21 20 20 20 19 19 18 18 17 16 15 14 14 13 13 13 13 12 11 11 10 10 10 10 10 10 10 10 11 11 11 11 10 10 10 11 12 14 16 18 20 21 22 23 24 25 26 27 28 29 30 31 32 34 35 36 37 37 38 38 38 37 38 39 39 40 42 42 43 43 42 43 44
14 15 15 16 17 17 18 19 19 19 19 19 19 20 20 20 20 20 19 19 19 18 18 17 16 15 15 14 14 14 13 13 12 11 11 11 11 11 11 11 10 10 9 10 10 10 11 10 10 10 10 10 12 13 15 16 18 19 21 22 23 24 25 26 27 28 29 31 33 34 36 38 40 41 43 43 43 44 45 46 46 47 47 48 48 49 50
14 15 16 17 18 18 18 19 20 20 20 20 20 20 20 20 20 20 19 19 19 19 18 18 18 17 16 16 15 14 14 13 13 12 12 11 11 11 10 10 10 10 10 10 9 10 10 10 11 11 10 10 11 11 12 13 14 15 16 18 19 20 21 22 23 25 27 28 30 31 32 34 36 38 41 42 44 45 47 48 50 51 52 53 54 55 56
14 15 16 17 18 19 19 20 20 21 21 21 21 21 20 20 21 21 20 20 19 19 18 18 17 17 17 16 16 15 15 14 14 13 13 13 12 12 11 10 10 10 10 10 10 10 10 10 11 11 11 11 12 12 12 12 13 13 14 14 15 16 18 18 20 22 23 25 27 28 29 31 33 34 36 37 39 40 42 43 45 47 48 49 50 51 53
15 16 17 17 18 19 20 21 21 22 22 22 22 22 21 21 21 22 22 21 20 20 19 19 18 17 17 17 17 16 16 16 15 14 14 13 13 13 13 12 11 10 10 10 10 10 10 10 11 11 12 12 13 13 13 13 13 14 14 15 15 17 18 19 20 21 22 23 24 26 27 29 30 31 32 34 35 36 38 39 40 41 42 43 44 46 47
17 18 18 19 19 19 20 20 21 22 22 23 23 23 23 22 22 22 22 22 21 21 20 20 19 18 18 18 17 17 17 17 17 16 16 15 14 13 13 13 12 12 11 11 10 10 10 11 11 11 12 13 13 13 13 14 14 14 15 16 17 18 19 20 21 22 22 23 24 25 26 27 28 29 30 31 33 34 35 36 37 38 39 40 41 43 44
18 19 20 20 20 20 20 20 21 21 22 23 23 23 23 23 23 23 23 23 23 22 21 21 20 20 19 18 18 17 17 17 17 17 16 15 14 14 14 14 13 13 12 12 11 11 11 11 11 11 11 12 13 13 13 14 14 15 16 18 19 20 20 21 21 22 22 23 24 24 25 26 27 28 29 31 32 33 34 35 36 37 38 39 40 41 42
19 20 21 21 22 22 22 22 21 21 22 22 23 23 23 23 24 24 24 24 23 23 23 22 22 21 20 19 18 18 17 17 18 17 16 16 16 15 15 14 14 14 13 13 12 12 12 11 11 11 12 13 13 14 14 13 14 15 17 18 19 19 20 20 21 21 22 22 23 24 25 26 27 28 29 30 31 32 33 34 35 36 38 39 40 41 42
20 21 21 22 23 24 24 24 23 22 22 23 23 23 24 24 24 24 24 24 24 24 23 23 23 23 22 21 20 20 19 18 18 18 18 17 17 17 16 16 15 15 14 14 14 13 13 12 12 12 13 13 14 15 14 14 14 15 16 17 17 18 18 19 20 21 21 22 23 24 25 26 28 28 29 30 31 32 33 34 35 35 36 36 36 36 37
21 22 22 22 23 24 25 25 25 24 24 24 24 25 25 25 25 25 25 24 24 24 24 24 24 24 23 22 22 21 21 20 19 19 18 18 18 18 17 17 17 16 15 15 14 14 14 14 13 13 13 14 15 15 15 15 15 16 16 16 17 17 18 18 19 20 21 22 23 24 25 26 27 28 29 29 30 31 31 31 30 30 29 28 28 27 26
22 23 23 23 23 23 24 25 26 26 26 26 26 26 26 26 26 26 25 25 25 25 25 24 24 24 24 24 24 23 22 21 21 20 19 18 19 19 19 18 18 17 16 15 15 15 15 15 15 15 14 15 15 16 16 16 16 16 16 16 16 17 17 18 19 20 21 22 23 24 25 26 26 26 26 26 26 25 25 23 22 21 20 19 19 19 19
23 23 23 23 23 23 24 25 26 26 27 27 28 28 28 27 27 27 26 26 25 25 25 24 24 25 25 25 25 25 24 23 22 21 20 19 19 19 20 19 19 19 17 17 16 15 15 16 16 16 16 16 16 16 17 17 17 17 16 16 16 17 18 18 19 19 20 21 22 22 23 24 24 23 22 20 20 18 16 15 14 15 15 16 16 17 17
24 24 24 23 23 24 25 26 26 26 27 28 28 28 28 28 28 27 27 26 26 25 25 24 24 24 25 26 26 26 26 24 23 22 22 21 20 20 20 19 19 19 19 18 18 17 16 16 17 17 17 18 18 17 17 17 18 17 17 17 17 18 18 18 18 19 19 20 20 21 21 21 20 19 17 16 14 12 11 12 13 14 15 15 15 15 15
24 24 24 24 24 25 26 27 27 27 27 28 28 28 28 28 28 27 27 26 26 25 24 24 24 24 25 26 27 27 26 26 25 25 24 23 23 22 21 20 20 20 20 19 19 18 18 17 17 17 18 19 19 18 18 18 18 17 17 17 17 18 18 18 18 18 19 19 19 20 20 19 17 16 14 12 11 10 11 13 13 13 14 14 14 14 15
24 25 25 25 25 26 27 27 27 27 28 28 28 28 29 28 28 27 27 26 26 25 24 23 23 23 24 25 26 26 26 26 26 25 25 24 24 24 23 22 21 21 21 20 19 19 19 18 18 18 18 18 18 19 20 19 18 18 17 17 18 18 18 18 18 18 18 18 19 18 18 16 15 14 12 10 10 11 12 12 12 12 13 13 13 14 15
24 25 25 26 26 27 27 27 27 27 27 27 28 29 29 28 27 27 26 26 25 24 24 23 23 23 23 24 25 25 25 25 25 25 24 24 25 25 24 23 22 22 22 21 20 20 19 19 18 18 18 17 18 19 20 20 19 18 18 18 18 18 18 18 18 17 17 18 18 18 16 15 14 13 11 9 9 11 11 11 11 13 13 13 13 14 14
25 25 26 26 26 27 27 27 27 27 27 27 28 28 27 27 26 26 26 26 25 24 24 25 24 24 24 24 24 24 24 24 24 24 23 24 24 25 25 24 23 23 23 22 21 21 20 20 19 19 18 17 18 19 19 19 19 19 18 18 18 18 18 18 17 17 17 17 18 17 16 14 13 12 9 9 10 11 11 11 12 13 13 13 12 12 12
24 25 26 26 26 26 27 27 27 27 27 27 27 27 27 26 26 26 25 25 25 25 25 26 26 25 25 24 24 24 24 24 24 23 23 23 24 24 24 24 23 23 23 23 23 22 21 20 20 19 18 18 18 19 19 19 19 19 19 18 19 18 18 17 17 16 17 17 17 16 15 14 12 11 9 9 10 10 10 11 12 13 12 12 11 9 9
24 25 25 25 26 26 27 27 27 26 26 26 27 27 26 26 26 25 26 26 26 25 25 26 26 25 25 25 24 23 23 23 23 23 22 22 22 22 22 22 22 22 23 23 23 23 22 21 21 20 19 19 19 19 19 19 19 19 19 19 19 18 17 17 16 16 16 17 17 16 14 13 12 10 10 11 11 11 11 12 12 11 11 10 9 7 6
25 25 25 25 26 26 27 27 26 25 26 26 26 26 25 25 25 25 26 27 26 26 26 26 26 26 26 25 24 23 23 22 22 22 21 21 21 20 20 20 20 21 22 23 24 24 23 22 21 20 20 20 20 19 19 20 19 19 19 19 19 18 17 16 16 16 16 16 16 15 14 12 11 11 11 12 12 12 12 12 11 10 9 8 7 7 6
25 25 25 26 27 27 27 27 26 25 26 26 25 24 24 25 25 26 26 27 27 27 28 28 28 28 27 26 25 24 23 22 21 21 21 21 21 20 19 19 19 20 21 22 23 24 23 22 20 20 20 20 20 20 20 21 20 19 19 19 19 18 17 16 16 15 15 15 16 15 13 12 11 11 11 12 12 11 11 10 10 8 7 7 7 8 6
25 25 26 27 27 27 27 27 26 25 25 24 23 23 24 25 26 26 27 27 27 28 28 28 28 28 28 27 25 24 23 22 22 22 22 22 22 21 20 20 20 20 21 22 23 23 22 21 20 19 19 20 20 21 21 21 21 20 19 19 19 18 17 16 15 15 14 14 15 14 13 11 11 11 10 10 10 9 8 8 7 6 6 6 7 6 4
24 24 26 27 28 27 27 26 25 24 23 22 22 23 24 24 25 26 26 27 27 27 28 28 28 28 28 27 25 24 24 24 24 23 23 23 24 23 23 23 23 23 23 23 24 24 22 21 20 19 19 20 21 21 21 21 21 20 19 19 19 18 18 16 15 14 14 14 14 14 13 11 11 11 10 10 9 8 7 6 6 5 5 6 5 4 2
23 24 26 27 27 27 26 25 24 23 21 21 21 22 23 23 24 24 25 25 26 27 27 28 28 28 28 27 26 26 25 25 25 24 24 24 25 25 25 25 25 25 25 25 25 24 22 21 20 20 20 21 21 21 20 21 21 21 20 19 18 18 18 17 16 15 14 14 14 14 13 12 11 11 11 10 9 7 6 6 5 4 5 5 5 4 2
23 24 26 27 27 26 25 23 22 21 20 20 21 21 21 21 22 23 23 24 25 26 27 28 28 28 28 28 27 26 27 26 25 24 24 25 27 27 27 27 26 26 26 27 26 25 22 20 20 20 20 21 21 21 20 20 21 21 20 20 18 18 17 17 17 16 15 14 14 14 13 12 12 11 11 11 10 8 7 6 5 5 5 6 5 3 2
23 25 26 27 27 25 23 21 20 20 19 20 20 19 19 20 21 22 23 24 26 27 27 28 29 28 28 28 27 27 27 27 26 25 25 27 28 29 29 27 26 26 26 27 27 26 23 21 20 21 20 20 20 21 21 20 20 21 21 20 19 18 18 17 17 17 16 15 14 13 13 13 13 12 12 11 10 8 7 7 6 6 6 6 5 3 2
23 25 26 27 26 24 22 20 18 18 19 19 19 18 18 20 22 23 24 25 27 28 29 30 29 28 28 28 28 27 27 26 26 26 27 28 30 31 30 28 27 27 26 26 26 26 25 23 21 21 20 19 20 21 22 21 20 20 21 21 20 19 18 18 17 17 16 15 14 13 13 14 14 13 12 12 11 9 8 8 8 7 7 7 6 4 4
23 25 26 27 26 24 21 18 17 18 20 20 19 18 19 21 23 24 25 27 29 30 31 31 30 29 29 29 28 28 27 27 28 28 28 30 31 32 31 29 28 28 27 27 27 27 27 25 23 22 21 21 21 21 22 22 21 20 20 21 20 20 19 18 17 17 16 16 15 14 14 14 15 15 14 13 11 10 9 9 9 8 8 7 6 5 5
24 25 25 25 26 24 21 18 17 18 19 20 20 20 21 22 24 25 27 29 30 31 31 32 31 31 30 29 29 28 29 29 30 31 32 33 33 32 30 29 28 28 28 28 28 27 28 27 25 23 22 22 22 22 23 23 22 20 20 20 20 20 20 19 18 16 16 16 16 15 14 15 16 16 15 14 13 11 11 11 11 10 9 8 8 7 7
Wind_Direction
333 333 333 333 333 332 330 327 324 318 312 308 305 302 294 284 275 267 258 249 242 239 238 238 238 237 237 236 236 235 235 233 231 231 232 232 230 229 229 231 233 233 233 237 241 244 244 243 244 245 247 246 239 234 231 228 228 229 229 230 231 232 234 234 233 230 229 230 232 234 236 237 237 237 238 239 240 243 246 247 248 250 250 251 253 256 259
339 339 339 339 340 339 337 334 330 325 319 313 309 306 299 289 279 270 262 252 243 238 236 236 237 237 236 234 235 236 236 235 234 233 234 234 232 230 228 230 233 234 233 232 235 240 242 242 244 245 246 249 248 242 234 227 225 227 229 229 230 233 235 237 237 235 234 233 233 235 239 240 239 238 237 238 240 243 246 248 249 249 248 248 252 257 261
345 345 345 344 345 345 343 339 336 331 326 321 316 311 304 293 282 272 261 250 243 240 236 235 236 236 236 236 236 237 237 236 235 234 235 236 235 232 229 229 231 233 233 232 231 234 238 241 243 244 244 244 245 242 234 227 222 223 226 227 229 233 235 236 238 239 239 239 239 240 243 244 242 239 238 238 240 243 245 247 247 245 245 247 252 258 260
350 350 349 349 349 349 347 344 341 337 332 327 323 318 311 301 288 276 255 232 231 239 238 235 237 237 236 237 236 237 237 236 235 234 235 237 237 234 230 228 230 231 232 232 232 232 234 238 241 243 243 241 238 233 230 229 229 228 228 229 231 234 236 237 238 240 241 243 244 242 240 243 243 239 235 236 239 241 243 244 243 242 245 250 255 258 257
355 354 353 352 352 352 351 349 346 342 338 333 330 325 320 310 299 284 249 218 218 235 237 233 234 235 234 234 234 234 234 234 234 233 234 236 237 235 232 229 229 230 232 233 233 234 235 236 238 241 243 242 240 237 234 235 236 237 236 236 237 239 240 241 242 244 243 243 244 242 237 238 241 239 234 234 236 240 241 241 240 243 248 253 257 257 256
358 358 357 356 356 356 355 353 351 348 344 340 336 332 328 321 311 289 242 211 208 224 234 228 226 228 229 230 232 234 235 236 235 233 233 235 236 236 233 230 229 230 232 233 234 236 237 239 240 241 243 244 244 243 243 242 242 242 242 241 241 242 244 245 247 249 249 249 249 247 243 241 242 243 241 236 235 238 241 241 242 245 250 254 255 256 257
1 2 1 0 0 0 359 357 355 353 351 347 344 342 339 335 325 297 235 205 201 206 222 222 222 227 231 231 233 236 237 238 237 236 235 235 235 236 233 231 231 231 232 233 234 236 238 240 242 243 243 245 246 245 245 246 247 247 247 246 244 244 246 246 248 250 252 252 250 248 246 245 246 247 245 242 240 239 240 243 247 250 254 255 256 257 258
5 5 5 5 5 4 3 1 360 359 357 355 354 353 351 347 340 316 242 210 205 202 190 192 209 221 229 231 233 234 234 235 236 235 234 232 233 235 235 233 232 232 234 234 234 236 237 239 242 244 244 245 247 248 247 248 249 249 251 252 251 249 249 249 249 250 252 252 251 248 245 243 244 245 244 242 241 240 238 243 251 256 258 260 260 261 262
8 9 9 9 9 8 6 5 4 4 3 2 1 2 2 0 355 340 275 223 214 211 205 183 173 193 211 220 226 227 226 228 231 232 230 229 231 234 236 237 235 234 235 236 236 236 237 238 241 243 245 245 246 248 249 250 251 252 253 255 256 255 255 254 252 252 252 253 253 251 248 245 244 245 247 247 247 249 251 256 262 265 266 267 266 266 267
13 13 12 12 12 12 10 8 8 8 8 8 7 8 9 10 8 2 330 241 225 222 222 222 210 174 175 198 217 225 224 227 232 235 233 230 228 229 232 235 237 236 236 239 240 240 240 240 241 243 246 247 247 248 250 251 252 252 252 254 256 257 258 257 256 254 254 254 255 256 256 255 253 253 255 258 260 263 265 268 270 271 271 270 268 266 266
16 15 13 13 13 13 13 12 11 11 12 13 13 12 14 16 18 17 9 271 235 234 236 238 239 236 221 196 203 222 230 232 234 236 236 234 230 229 230 231 233 234 234 236 239 240 241 242 242 244 246 248 250 250 251 251 251 250 250 250 252 254 255 256 256 256 257 259 260 261 260 259 259 260 262 264 265 266 268 269 270 271 270 269 266 264 263
16 14 12 12 12 13 13 14 14 15 15 16 17 18 18 21 24 26 26 17 255 242 245 251 252 251 249 244 233 220 222 231 237 238 240 240 236 235 235 235 235 235 234 235 236 237 239 240 240 242 244 246 249 251 251 252 253 252 252 251 251 252 255 256 257 258 260 261 262 262 261 261 262 262 263 264 265 266 266 267 268 269 269 267 265 263 260
13 10 9 10 11 12 13 14 15 17 18 19 20 21 22 23 25 29 31 32 15 255 248 253 256 255 252 253 256 253 235 229 234 237 239 243 242 241 242 242 242 242 241 240 240 240 240 241 241 242 243 244 246 249 250 252 253 254 254 254 254 254 256 259 260 261 262 262 261 261 262 263 263 263 264 265 265 265 266 266 267 268 268 267 265 263 260
8 7 8 9 10 11 13 14 16 17 19 21 22 23 24 25 26 29 32 36 37 14 259 252 255 256 253 253 258 264 262 252 245 243 243 244 246 245 246 248 250 251 250 249 248 246 246 245 245 244 244 245 246 248 249 250 251 252 253 254 255 256 257 259 261 262 262 261 261 262 262 262 263 264 265 266 266 266 265 265 266 266 266 265 264 263 261
6 7 9 10 10 11 13 15 17 18 19 21 23 25 26 27 28 30 32 35 39 39 20 269 258 257 256 254 256 263 269 267 261 256 252 250 250 249 250 253 256 258 258 256 254 252 250 249 249 249 248 248 249 249 250 251 251 252 252 253 254 256 257 257 258 259 260 260 260 261 262 262 263 264 264 264 264 264 263 264 264 264 264 263 263 262 261
7 10 11 12 12 13 14 15 17 19 20 21 23 25 27 28 29 31 33 35 37 40 41 31 348 274 264 260 257 259 265 268 267 263 259 255 255 255 255 257 258 259 259 257 255 254 252 251 251 252 251 251 252 252 251 251 252 252 252 252 254 255 256 257 258 259 260 260 261 261 261 262 262 262 263 263 263 263 263 263 264 264 264 263 263 262 261
10 12 14 14 15 15 16 17 18 19 20 21 22 23 26 28 29 30 34 36 37 40 42 39 35 24 340 292 270 263 264 266 268 268 265 260 257 257 257 258 258 258 258 257 257 255 254 252 251 251 252 251 252 252 252 252 252 253 252 252 253 255 257 258 259 260 261 261 262 261 261 261 261 262 263 263 264 264 264 264 264 265 265 265 265 264 262
13 15 16 16 16 16 17 19 19 20 20 21 22 22 24 26 28 28 31 36 39 40 40 37 33 26 15 358 332 300 281 274 272 272 271 268 264 261 260 259 259 259 258 258 258 257 256 256 254 253 252 252 251 252 252 252 252 253 253 253 253 254 255 256 257 258 259 260 261 261 262 262 263 263 263 264 265 265 266 266 267 267 266 265 264 262 261
15 16 16 16 16 16 17 19 20 20 21 22 21 22 23 24 25 25 27 31 36 38 38 36 33 27 18 3 347 331 316 304 293 284 279 276 272 270 267 264 263 262 261 260 260 259 259 258 257 256 255 254 253 253 253 252 252 252 252 252 252 253 253 253 253 254 255 257 258 260 261 262 263 264 264 265 266 267 268 268 267 265 264 263 262 261 260
15 14 15 15 16 16 16 17 18 19 20 21 21 21 22 22 22 22 22 25 30 33 34 34 33 32 26 15 3 347 329 316 308 299 293 288 283 279 275 274 272 270 268 266 264 262 262 261 259 258 257 257 255 254 254 253 252 251 251 251 251 251 251 251 251 251 252 253 255 257 259 261 262 263 265 266 266 267 267 267 266 265 264 262 262 263 262
11 11 12 13 14 15 15 15 16 16 17 19 20 20 21 21 19 17 16 18 23 26 28 28 28 29 28 23 16 7 354 339 324 311 302 295 290 286 284 284 283 281 280 277 273 268 265 263 261 260 259 259 258 257 256 255 254 253 252 252 252 252 252 251 251 251 251 252 253 255 257 258 258 259 261 262 262 262 262 263 264 264 262 259 258 258 258
9 9 9 9 10 11 12 12 12 13 13 15 16 17 18 19 17 14 12 13 15 17 20 21 21 22 23 21 18 15 9 1 349 336 322 308 298 293 290 289 288 288 289 289 287 284 277 271 266 264 262 261 260 259 258 257 257 256 255 254 253 253 253 253 253 253 252 252 253 254 255 257 258 259 259 258 257 256 256 257 258 258 257 257 257 257 257
5 5 6 5 5 5 6 7 8 8 9 10 11 13 14 14 14 12 10 9 9 10 11 12 12 14 14 13 11 10 9 6 359 352 344 333 321 310 303 298 294 292 293 294 296 297 295 288 280 272 267 264 262 261 260 259 258 257 257 256 256 255 255 255 255 255 255 253 252 251 251 251 251 251 252 252 251 251 251 252 252 252 252 253 254 255 257
360 0 1 1 1 360 360 1 2 3 4 4 6 7 8 8 10 10 8 5 4 5 5 4 4 5 6 5 2 1 2 1 355 351 348 344 337 331 325 320 312 305 302 300 300 300 300 298 293 285 278 272 268 266 264 263 261 259 258 258 257 257 257 256 257 257 256 255 253 251 250 248 247 245 244 244 245 246 247 249 249 250 250 250 250 251 253
354 354 355 355 356 356 355 355 356 357 359 359 360 0 1 2 4 5 4 2 1 0 360 359 358 358 359 359 355 352 352 352 348 344 343 342 339 336 335 333 330 323 316 309 305 302 300 299 297 295 292 286 279 273 269 267 266 264 263 262 261 260 259 259 258 259 258 257 256 254 254 253 251 250 249 249 249 249 250 250 251 251 251 251 252 253 254
349 349 349 350 350 351 351 351 351 352 353 354 355 356 356 356 357 358 358 358 358 357 355 355 354 353 353 353 350 345 343 342 340 337 335 335 335 334 334 332 330 328 323 318 313 308 303 301 299 297 296 292 286 281 278 275 273 271 270 269 268 266 264 262 260 259 259 258 259 259 258 257 256 256 256 256 256 256 255 255 255 256 256 256 256 257 258
342 344 345 345 346 346 346 346 347 348 348 349 351 351 352 352 352 351 351 352 353 353 351 351 351 349 348 347 345 341 338 337 335 331 329 329 329 330 330 329 327 326 324 321 318 312 306 302 298 295 293 290 287 286 285 284 282 280 277 276 275 272 269 266 263 261 260 259 259 259 259 259 259 259 260 260 260 260 261 261 261 261 261 262 262 263 263
337 339 341 341 341 341 341 342 343 344 344 345 346 346 347 348 347 347 346 346 347 347 346 345 345 344 342 342 341 340 337 335 333 330 327 325 323 323 323 324 324 322 321 319 317 313 308 304 300 297 294 291 290 290 288 287 285 284 281 278 275 272 270 269 267 266 265 264 264 264 264 264 264 264 264 265 265 265 265 265 265 265 266 266 267 267 268
334 335 336 336 337 337 337 338 340 340 340 341 342 341 342 342 343 343 342 341 341 341 341 339 338 338 338 338 338 338 335 333 331 329 326 322 319 317 317 318 319 319 318 317 314 310 308 305 303 301 298 294 292 290 287 285 283 282 280 276 273 272 272 273 274 274 274 273 273 273 273 273 272 272 271 271 270 270 270 269 269 270 270 270 270 270 271
330 331 331 331 331 332 333 334 336 336 336 337 337 337 337 337 338 338 338 337 336 336 336 335 334 333 333 333 334 334 331 329 328 327 324 320 318 316 314 313 312 312 312 311 309 307 305 304 303 302 299 296 294 291 287 284 282 279 277 276 275 276 278 279 280 280 280 280 280 279 278 278 277 276 275 274 274 274 274 274 274 274 274 274 274 274 274
325 326 327 327 327 327 328 330 331 332 333 333 333 333 333 333 334 334 334 333 332 331 331 331 329 329 328 328 328 329 327 324 324 323 321 319 318 318 316 312 310 308 307 306 305 306 305 304 304 302 299 296 293 290 287 285 282 278 277 278 280 282 283 283 284 284 284 284 284 283 281 281 280 279 278 278 277 277 277 277 277 277 277 277 277 278 278
321 322 322 323 324 324 324 325 327 329 330 330 329 329 329 330 330 331 331 329 328 327 327 327 326 325 324 324 324 324 323 321 321 321 320 319 318 318 318 315 312 310 307 305 303 303 302 301 301 299 297 295 292 291 290 288 285 283 284 285 286 287 287 287 286 286 286 286 286 285 285 284 283 282 282 281 280 280 279 278 278 278 278 279 279 279 280
318 318 319 320 321 321 321 322 323 326 327 327 326 326 326 327 328 328 328 326 325 324 324 323 322 321 321 320 320 320 320 318 317 317 316 315 314 314 314 314 313 312 310 307 304 300 297 296 296 296 295 293 292 291 291 291 289 290 291 292 292 291 290 288 287 287 288 288 289 288 288 287 286 285 284 282 281 280 279 279 279 279 280 280 280 281 281
315 315 316 317 318 318 319 319 321 323 325 324 324 324 325 326 326 326 325 325 324 322 321 320 319 318 317 316 316 316 316 314 313 313 312 311 310 310 311 312 311 311 311 310 306 302 298 295 295 296 294 292 291 290 290 291 292 293 293 293 292 290 288 287 288 290 291 291 292 292 291 291 290 288 286 285 284 283 282 282 281 281 282 283 284 285 286
312 313 314 315 316 317 316 316 318 321 322 322 322 323 324 324 324 324 323 323 322 321 320 319 317 315 314 313 312 312 312 311 310 310 309 308 307 306 308 309 309 309 310 310 307 304 300 296 295 294 293 291 290 290 290 291 293 294 294 293 291 289 289 290 292 293 293 294 296 296 295 294 292 291 290 290 288 285 283 284 284 286 289 291 294 296 295
309 311 312 313 314 314 314 314 317 319 319 320 321 323 323 322 322 321 321 321 320 320 319 318 316 314 313 311 310 311 311 311 311 310 309 307 306 304 304 305 305 305 307 308 307 305 303 300 297 295 293 291 290 290 291 291 293 295 296 295 292 291 292 293 294 295 297 299 300 300 298 297 296 296 297 294 288 284 285 289 291 292 294 296 300 303 304
308 309 310 311 312 312 312 314 316 317 318 319 321 322 322 321 320 319 319 320 320 320 319 317 315 313 312 310 309 310 311 311 311 310 310 309 307 305 304 303 301 301 302 303 303 303 302 302 301 298 295 293 292 292 291 291 292 294 295 293 291 291 293 295 296 297 299 301 303 303 302 300 300 302 301 294 283 282 289 291 291 291 294 297 302 307 309
308 309 309 310 310 310 311 313 315 316 317 320 321 321 321 320 319 319 319 319 320 320 319 316 314 313 312 310 308 309 310 310 310 310 310 308 306 304 303 301 299 298 298 298 299 299 299 300 300 299 297 296 294 292 291 292 293 294 294 292 292 292 294 296 297 299 301 303 305 305 303 301 302 304 300 287 279 285 291 290 288 292 297 300 304 307 308
308 309 309 309 309 309 310 311 313 315 317 320 321 320 320 320 319 319 319 320 321 321 319 317 316 315 313 310 309 310 311 311 311 311 310 308 305 303 301 298 296 295 295 295 296 296 296 297 297 296 297 297 293 290 290 292 292 293 293 293 293 293 294 296 297 299 302 305 307 306 303 301 302 303 296 283 283 292 294 290 289 295 301 303 303 304 305
308 308 308 308 309 309 310 312 314 316 318 319 320 319 319 320 320 321 321 322 323 322 320 319 319 317 315 313 312 312 313 313 312 312 312 310 307 305 302 299 297 295 293 293 294 294 294 295 294 294 296 296 292 290 291 291 291 291 292 293 293 293 294 296 298 301 304 306 307 305 301 298 301 302 293 283 287 294 293 291 294 297 299 301 303 306 308
306 307 307 308 309 310 311 312 314 316 317 318 319 319 320 321 322 323 323 323 323 322 321 320 319 318 316 315 314 314 314 313 313 313 314 312 309 306 304 302 300 296 293 292 292 292 292 291 292 293 295 295 293 293 294 293 292 292 292 292 293 294 295 297 299 301 304 305 305 302 297 295 301 303 291 280 283 288 290 295 298 297 295 299 306 313 316
306 306 306 307 309 311 312 313 314 316 316 317 318 320 321 322 323 324 323 323 322 321 320 320 319 317 316 316 315 315 314 312 311 311 311 310 308 305 303 301 299 296 294 292 291 290 290 290 290 291 292 292 292 294 295 294 294 293 293 293 294 294 296 298 300 300 302 303 303 300 295 292 297 298 286 276 276 279 287 299 304 300 295 298 307 321 329
306 306 306 307 309 311 313 314 315 316 316 317 319 320 321 323 324 324 323 323 322 322 321 320 319 318 317 317 318 317 315 313 311 310 310 309 309 307 304 301 299 297 296 294 293 292 292 291 289 288 289 290 291 293 294 294 295 295 294 293 293 294 295 297 297 298 299 301 301 298 292 289 290 289 281 275 274 275 285 300 308 304 297 300 316 334 338
304 304 305 306 308 311 313 314 315 315 316 316 318 320 321 323 324 323 323 324 324 324 324 323 321 319 319 320 321 320 318 316 314 313 313 314 313 312 310 306 303 301 300 298 298 298 297 294 290 288 288 288 290 292 293 294 296 296 295 293 292 293 295 295 294 294 295 298 298 295 288 283 284 283 279 275 272 273 284 300 306 302 303 313 323 325 313
301 303 305 305 307 310 312 312 313 314 314 315 317 320 322 323 323 324 325 326 327 327 326 324 322 321 320 322 323 322 320 319 318 317 318 317 317 316 316 314 312 310 308 306 305 306 304 299 293 289 287 286 287 290 291 292 294 295 295 293 293 293 293 292 291 291 292 294 295 291 284 278 278 280 280 277 274 276 287 297 296 299 310 312 303 293 273
300 302 303 303 305 307 309 310 311 311 312 314 317 320 322 322 324 326 328 329 329 328 326 324 322 321 320 321 322 322 321 319 319 319 319 318 317 318 320 319 318 316 314 312 311 312 311 305 298 292 287 284 284 286 287 289 291 293 294 293 293 292 290 290 289 289 288 289 290 287 280 273 273 278 282 280 277 282 289 287 281 290 303 289 266 251 236
299 300 301 301 303 304 306 306 307 308 311 315 317 319 321 322 325 330 333 332 330 327 324 322 320 320 320 320 321 320 319 317 316 317 317 316 316 317 318 319 318 317 315 313 313 315 315 310 302 293 286 282 282 283 284 286 289 292 293 293 292 291 289 290 290 288 285 285 286 284 277 269 267 274 279 278 277 283 285 274 263 272 280 263 237 220 222
299 300 299 298 299 301 302 303 305 307 311 314 316 318 321 322 326 332 336 334 328 324 321 319 318 318 318 318 318 318 316 314 313 314 314 313 313 314 316 317 316 314 313 312 313 314 314 310 302 294 288 284 282 282 282 284 287 289 290 291 291 291 290 290 290 288 283 281 282 281 274 264 261 266 272 273 273 276 274 259 246 249 255 243 224 214 235
299 298 295 295 297 298 299 300 303 306 309 312 314 317 321 323 326 331 334 331 326 322 320 318 317 317 316 315 315 314 312 310 310 311 311 310 311 313 315 315 313 310 309 309 310 309 309 306 300 295 292 287 283 282 281 281 283 285 287 289 291 291 290 289 288 286 282 279 277 276 270 261 254 256 262 266 266 267 263 249 236 236 240 237 232 241 269
297 294 292 293 294 294 295 298 301 303 305 308 312 316 320 322 325 329 330 328 325 323 321 319 317 316 314 312 311 310 308 308 308 309 309 308 309 311 313 312 309 306 306 306 305 304 303 301 297 293 291 287 283 281 280 280 280 282 284 287 290 291 289 287 286 284 280 276 273 271 267 259 251 248 253 257 258 256 253 243 232 229 230 230 232 247 268
294 292 291 292 292 292 295 299 300 299 300 304 308 314 318 321 324 327 328 326 323 322 321 319 316 314 312 310 309 308 307 306 307 307 307 306 308 309 310 308 306 305 304 303 302 300 299 297 294 291 288 285 281 278 278 278 279 280 282 284 287 288 287 285 283 281 278 274 270 267 264 257 249 243 244 248 249 248 245 238 230 224 222 222 224 235 250
291 290 290 289 288 290 294 297 296 295 297 301 306 312 317 320 323 325 325 323 322 321 319 317 315 313 311 310 309 308 306 306 307 307 307 307 307 308 307 305 304 303 303 301 299 297 296 295 293 290 286 284 282 279 277 276 277 277 278 280 283 285 284 283 281 279 277 274 269 264 260 255 248 241 238 240 242 241 239 236 230 223 218 216 217 223 231
Height
5634 5631 5629 5626 5623 5620 5617 5614 5611 5609 5606 5603 5600 5598 5597 5595 5595 5595 5596 5596 5597 5599 5601 5603 5605 5607 5610 5612 5614 5615 5616 5619 5621 5623 5624 5626 5628 5631 5633 5635 5637 5639 5641 5643 5644 5645 5647 5649 5650 5651 5653 5655 5656 5657 5658 5660 5662 5664 5665 5666 5667 5669 5670 5671 5672 5673 5675 5676 5677 5678 5679 5681 5682 5683 5684 5686 5686 5687 5689 5690 5691 5692 5693 5695 5696 5697 5698
5632 5629 5627 5624 5621 5618 5614 5611 5608 5605 5603 5601 5598 5595 5593 5590 5590 5590 5590 5591 5592 5594 5596 5598 5600 5602 5605 5607 5608 5610 5613 5616 5618 5620 5621 5622 5625 5627 5630 5632 5634 5636 5638 5640 5641 5642 5644 5646 5648 5649 5650 5652 5653 5654 5655 5656 5658 5660 5662 5663 5664 5666 5667 5667 5668 5670 5672 5673 5674 5675 5676 5677 5678 5680 5681 5682 5683 5684 5685 5687 5688 5689 5690 5692 5693 5694 5696
5630 5628 5625 5622 5619 5616 5612 5609 5605 5602 5599 5597 5594 5591 5589 5587 5586 5586 5586 5587 5588 5590 5592 5595 5596 5598 5600 5603 5605 5607 5610 5613 5615 5617 5618 5619 5621 5624 5626 5629 5630 5632 5634 5637 5638 5640 5641 5643 5645 5646 5648 5649 5651 5651 5652 5653 5654 5656 5658 5660 5661 5662 5663 5664 5665 5666 5668 5670 5672 5674 5675 5675 5675 5677 5678 5679 5680 5681 5682 5683 5684 5686 5687 5688 5690 5691 5693
5629 5626 5623 5621 5618 5615 5611 5607 5604 5600 5597 5594 5591 5588 5586 5583 5582 5582 5582 5583 5585 5586 5588 5591 5593 5595 5597 5599 5601 5603 5606 5609 5611 5613 5615 5616 5618 5620 5623 5625 5627 5629 5631 5633 5635 5636 5638 5640 5642 5643 5645 5647 5648 5649 5650 5652 5652 5653 5655 5657 5658 5659 5660 5661 5662 5663 5665 5667 5668 5670 5671 5671 5672 5672 5674 5675 5677 5678 5679 5680 5681 5682 5683 5685 5686 5688 5689
5628 5625 5622 5619 5616 5613 5610 5606 5602 5599 5595 5591 5588 5586 5583 5581 5579 5578 5578 5580 5581 5583 5585 5588 5590 5592 5594 5595 5597 5599 5602 5604 5607 5610 5612 5613 5614 5616 5619 5622 5623 5625 5627 5630 5632 5633 5635 5637 5639 5640 5642 5644 5645 5647 5648 5649 5650 5651 5652 5654 5655 5656 5657 5658 5659 5660 5661 5663 5663 5664 5665 5666 5667 5668 5669 5670 5672 5673 5675 5676 5677 5678 5680 5681 5683 5684 5685
5627 5624 5621 5618 5615 5612 5609 5605 5601 5598 5594 5590 5587 5584 5581 5578 5576 5574 5575 5577 5579 5581 5583 5585 5587 5589 5591 5592 5594 5596 5598 5601 5604 5607 5609 5610 5612 5613 5616 5618 5620 5622 5624 5626 5628 5630 5632 5633 5635 5637 5639 5640 5642 5644 5645 5646 5647 5648 5650 5650 5652 5653 5653 5655 5656 5656 5657 5658 5659 5660 5661 5662 5663 5664 5665 5666 5667 5669 5671 5672 5673 5674 5676 5678 5679 5680 5681
5626 5624 5621 5618 5614 5611 5608 5604 5600 5597 5593 5589 5586 5583 5579 5576 5573 5572 5572 5574 5576 5578 5580 5582 5584 5586 5588 5590 5592 5594 5596 5598 5601 5604 5606 5608 5609 5610 5612 5615 5617 5619 5621 5623 5625 5627 5629 5630 5632 5634 5636 5637 5639 5640 5641 5643 5644 5645 5646 5647 5648 5649 5650 5651 5652 5653 5654 5655 5656 5656 5657 5659 5660 5661 5662 5662 5663 5665 5667 5668 5670 5671 5673 5674 5675 5676 5677
5626 5623 5620 5617 5614 5611 5607 5604 5600 5596 5592 5589 5585 5582 5578 5575 5572 5570 5571 5572 5573 5575 5578 5579 5582 5584 5586 5588 5590 5591 5593 5596 5598 5601 5603 5605 5606 5608 5610 5611 5613 5616 5617 5619 5622 5623 5625 5627 5628 5630 5632 5633 5635 5636 5638 5639 5640 5642 5643 5643 5644 5646 5646 5647 5649 5650 5650 5652 5653 5653 5654 5655 5657 5658 5659 5660 5661 5662 5663 5665 5666 5668 5669 5670 5671 5672 5673
5626 5623 5620 5617 5614 5611 5607 5604 5600 5596 5592 5588 5585 5582 5578 5575 5572 5570 5570 5571 5573 5574 5576 5578 5580 5582 5584 5586 5588 5590 5591 5593 5595 5597 5599 5601 5604 5605 5607 5609 5611 5613 5614 5616 5618 5620 5622 5624 5625 5626 5627 5629 5631 5632 5634 5635 5636 5638 5639 5639 5640 5642 5642 5643 5645 5646 5647 5648 5649 5649 5650 5651 5652 5654 5655 5656 5657 5658 5660 5661 5662 5663 5665 5666 5667 5668 5669
5626 5623 5620 5618 5615 5611 5608 5604 5600 5597 5593 5589 5586 5582 5579 5576 5573 5571 5571 5572 5573 5574 5576 5577 5579 5581 5583 5586 5587 5589 5590 5591 5593 5595 5596 5598 5600 5602 5604 5606 5608 5610 5611 5613 5615 5617 5619 5620 5622 5623 5624 5625 5627 5628 5630 5631 5632 5633 5634 5635 5637 5638 5638 5639 5641 5642 5642 5643 5644 5644 5645 5646 5648 5650 5651 5652 5653 5654 5655 5656 5657 5658 5659 5660 5662 5662 5663
5626 5623 5621 5618 5615 5612 5609 5605 5601 5598 5594 5590 5587 5584 5581 5578 5575 5573 5572 5573 5574 5575 5576 5577 5579 5581 5583 5585 5586 5588 5589 5590 5591 5593 5594 5595 5597 5599 5601 5603 5604 5606 5608 5610 5612 5614 5615 5617 5618 5619 5620 5621 5622 5624 5625 5626 5627 5629 5630 5632 5633 5634 5634 5635 5636 5637 5638 5638 5639 5639 5639 5641 5643 5645 5646 5647 5648 5649 5650 5651 5651 5652 5654 5655 5656 5656 5657
5626 5623 5621 5618 5616 5613 5609 5606 5603 5599 5596 5592 5589 5586 5583 5580 5578 5576 5574 5574 5575 5575 5576 5578 5579 5581 5582 5584 5585 5587 5588 5589 5590 5591 5592 5593 5595 5596 5598 5600 5601 5603 5604 5606 5607 5609 5611 5612 5614 5615 5616 5617 5618 5618 5619 5621 5622 5624 5626 5627 5628 5629 5630 5630 5631 5632 5633 5633 5634 5633 5634 5637 5640 5640 5641 5643 5643 5644 5645 5645 5646 5647 5648 5649 5650 5651 5651
5626 5624 5621 5619 5616 5613 5610 5607 5604 5601 5598 5594 5591 5587 5585 5582 5580 5578 5577 5576 5576 5576 5577 5578 5579 5581 5582 5583 5584 5586 5587 5588 5589 5590 5591 5592 5593 5595 5596 5597 5598 5600 5601 5603 5604 5605 5607 5608 5610 5611 5612 5613 5613 5613 5615 5616 5618 5619 5621 5622 5623 5624 5624 5625 5626 5627 5628 5628 5628 5628 5630 5633 5635 5635 5636 5638 5638 5639 5640 5640 5641 5642 5642 5643 5644 5645 5646
5626 5624 5621 5619 5617 5614 5611 5608 5605 5602 5599 5596 5593 5590 5587 5584 5582 5580 5579 5578 5578 5577 5578 5578 5579 5580 5582 5583 5584 5585 5586 5587 5588 5589 5590 5591 5592 5593 5594 5595 5596 5597 5598 5599 5600 5602 5603 5604 5606 5607 5608 5609 5609 5609 5611 5612 5613 5614 5616 5617 5618 5618 5619 5620 5621 5621 5622 5623 5623 5624 5625 5628 5629 5630 5631 5633 5633 5634 5634 5635 5636 5637 5637 5637 5638 5639 5640
5626 5624 5622 5619 5617 5615 5612 5609 5607 5604 5601 5598 5595 5592 5589 5587 5584 5583 5581 5580 5580 5579 5579 5579 5580 5580 5581 5582 5583 5584 5585 5586 5587 5588 5589 5589 5590 5591 5591 5592 5593 5594 5595 5596 5596 5598 5599 5600 5601 5602 5603 5604 5604 5605 5607 5608 5609 5610 5611 5612 5613 5614 5614 5615 5615 5616 5617 5618 5618 5619 5620 5622 5624 5625 5626 5627 5628 5628 5629 5630 5630 5631 5632 5633 5633 5634 5635
5626 5624 5622 5620 5618 5615 5613 5610 5608 5605 5603 5600 5597 5594 5592 5589 5587 5585 5584 5582 5581 5581 5580 5580 5580 5580 5581 5581 5582 5582 5583 5583 5584 5586 5587 5587 5588 5588 5588 5589 5589 5590 5591 5591 5592 5593 5594 5595 5596 5597 5598 5599 5600 5600 5602 5603 5604 5605 5607 5608 5608 5609 5609 5610 5610 5610 5611 5612 5612 5613 5615 5617 5618 5619 5620 5621 5622 5622 5623 5624 5625 5626 5627 5628 5629 5629 5630
5626 5624 5622 5620 5618 5616 5614 5611 5609 5606 5604 5601 5599 5597 5594 5592 5590 5588 5586 5584 5583 5582 5582 5581 5581 5581 5581 5581 5581 5581 5581 5581 5582 5583 5583 5584 5585 5585 5585 5586 5586 5587 5587 5588 5588 5589 5590 5590 5592 5592 5593 5594 5595 5595 5597 5598 5599 5600 5602 5603 5603 5604 5604 5604 5604 5604 5605 5606 5606 5607 5609 5611 5612 5614 5614 5615 5615 5616 5617 5618 5619 5621 5621 5622 5623 5623 5623
5626 5625 5623 5621 5619 5617 5614 5612 5610 5607 5605 5603 5601 5598 5596 5594 5592 5590 5589 5587 5585 5584 5583 5583 5582 5582 5581 5581 5581 5581 5581 5581 5581 5581 5581 5581 5581 5582 5582 5583 5583 5583 5584 5584 5584 5585 5586 5586 5587 5588 5588 5589 5590 5590 5591 5593 5594 5595 5596 5597 5598 5598 5599 5599 5599 5599 5600 5600 5600 5601 5603 5604 5606 5608 5608 5608 5609 5609 5610 5612 5614 5614 5614 5615 5615 5616 5616
5626 5625 5623 5621 5619 5617 5615 5613 5611 5609 5606 5604 5602 5600 5598 5596 5594 5592 5591 5589 5588 5586 5585 5584 5583 5582 5582 5581 5581 5581 5580 5580 5580 5580 5580 5579 5579 5579 5580 5580 5580 5580 5580 5580 5580 5581 5581 5582 5582 5583 5583 5584 5585 5586 5587 5588 5589 5590 5591 5592 5592 5593 5593 5593 5594 5594 5595 5595 5595 5596 5597 5598 5600 5601 5601 5602 5603 5603 5604 5606 5607 5607 5608 5608 5609 5609 5609
5626 5625 5623 5621 5619 5617 5615 5613 5611 5609 5607 5605 5603 5601 5599 5597 5595 5594 5593 5591 5589 5588 5586 5585 5584 5583 5582 5581 5581 5580 5580 5580 5579 5579 5579 5578 5578 5578 5578 5578 5577 5577 5577 5577 5577 5577 5577 5577 5577 5578 5578 5579 5580 5581 5582 5582 5583 5584 5585 5586 5587 5587 5588 5588 5588 5589 5590 5590 5591 5591 5592 5593 5595 5595 5595 5596 5597 5597 5598 5599 5600 5601 5602 5603 5603 5603 5603
5626 5625 5623 5621 5619 5618 5616 5614 5612 5610 5608 5606 5604 5602 5600 5598 5597 5595 5594 5592 5591 5589 5588 5587 5585 5584 5583 5582 5581 5580 5580 5579 5579 5578 5578 5577 5577 5576 5576 5576 5575 5575 5575 5574 5574 5573 5573 5573 5573 5573 5573 5574 5575 5575 5576 5577 5578 5579 5580 5580 5581 5582 5582 5583 5583 5584 5585 5586 5586 5586 5587 5588 5589 5590 5590 5590 5591 5592 5593 5594 5595 5595 5596 5597 5598 5598 5597
5626 5624 5623 5621 5619 5618 5616 5614 5612 5610 5609 5607 5605 5603 5601 5599 5598 5596 5595 5593 5591 5590 5589 5588 5586 5585 5584 5583 5582 5581 5580 5579 5578 5577 5576 5576 5575 5575 5574 5574 5573 5573 5572 5572 5571 5571 5570 5569 5569 5569 5569 5569 5570 5571 5571 5572 5573 5574 5575 5575 5576 5576 5577 5578 5578 5579 5580 5581 5581 5582 5582 5583 5584 5584 5585 5585 5586 5587 5588 5589 5590 5590 5590 5591 5591 5591 5591
5626 5624 5623 5621 5619 5617 5616 5614 5612 5611 5609 5607 5605 5603 5602 5600 5599 5597 5595 5594 5592 5591 5589 5588 5587 5586 5584 5583 5582 5581 5580 5579 5578 5576 5576 5575 5574 5573 5573 5572 5571 5571 5570 5570 5569 5568 5568 5567 5566 5566 5566 5566 5566 5566 5567 5568 5569 5569 5570 5570 5571 5571 5572 5573 5573 5574 5575 5576 5576 5577 5577 5578 5579 5580 5580 5580 5581 5582 5582 5583 5584 5584 5585 5585 5585 5584 5584
5625 5624 5622 5621 5619 5617 5616 5614 5612 5611 5609 5607 5605 5604 5602 5601 5599 5597 5596 5594 5593 5591 5590 5588 5587 5586 5585 5583 5582 5581 5580 5579 5577 5576 5575 5574 5573 5572 5571 5571 5570 5569 5569 5568 5567 5567 5566 5565 5564 5564 5564 5563 5563 5563 5564 5564 5565 5565 5565 5566 5566 5567 5568 5569 5569 5569 5570 5571 5571 5572 5572 5573 5574 5575 5575 5575 5576 5576 5576 5577 5578 5578 5578 5579 5579 5578 5578
5624 5623 5621 5620 5619 5617 5615 5614 5612 5611 5609 5608 5606 5604 5603 5601 5599 5598 5596 5594 5593 5591 5589 5588 5586 5585 5584 5583 5582 5580 5579 5578 5577 5576 5575 5574 5572 5571 5570 5569 5568 5568 5567 5566 5566 5565 5564 5564 5563 5562 5562 5562 5562 5561 5561 5561 5561 5562 5562 5562 5563 5563 5564 5565 5565 5565 5566 5566 5566 5567 5567 5568 5568 5569 5569 5570 5570 5571 5571 5571 5572 5572 5572 5572 5572 5572 5572
5623 5622 5620 5619 5618 5616 5615 5613 5611 5610 5608 5607 5605 5604 5602 5600 5599 5597 5596 5594 5593 5591 5589 5588 5586 5585 5583 5582 5581 5580 5579 5578 5576 5575 5574 5573 5572 5571 5570 5568 5567 5566 5565 5565 5564 5563 5563 5562 5562 5561 5561 5560 5560 5560 5560 5559 5559 5559 5559 5559 5560 5560 5560 5561 5561 5561 5561 5561 5562 5562 5563 5563 5563 5563 5563 5564 5564 5564 5565 5565 5565 5565 5565 5565 5565 5565 5565
5622 5621 5620 5618 5617 5615 5614 5612 5611 5609 5607 5606 5604 5603 5601 5600 5598 5597 5595 5594 5592 5591 5589 5588 5586 5584 5583 5582 5580 5579 5578 5577 5575 5574 5573 5572 5571 5570 5569 5568 5566 5565 5564 5563 5563 5562 5561 5561 5560 5560 5559 5559 5558 5558 5558 5558 5558 5558 5557 5557 5557 5557 5557 5557 5557 5557 5557 5557 5557 5558 5558 5558 5558 5558 5558 5558 5558 5558 5558 5558 5558 5558 5558 5558 5558 5557 5557
5621 5620 5618 5617 5616 5614 5612 5611 5609 5608 5606 5605 5603 5602 5600 5599 5597 5596 5594 5592 5591 5590 5588 5587 5585 5584 5582 5581 5579 5578 5577 5575 5574 5573 5572 5570 5569 5568 5567 5566 5565 5564 5563 5562 5561 5561 5560 5559 5559 5558 5557 5557 5557 5556 5556 5556 5556 5556 5555 5555 5554 5554 5554 5554 5554 5554 5554 5554 5554 5554 5554 5554 5554 5554 5554 5553 5553 5553 5552 5552 5552 5552 5551 5551 5551 5550 5549
5619 5618 5617 5616 5614 5613 5611 5610 5608 5607 5605 5603 5602 5600 5599 5597 5596 5594 5593 5591 5590 5588 5587 5586 5584 5583 5581 5580 5578 5577 5575 5574 5573 5572 5570 5569 5568 5567 5566 5565 5564 5563 5562 5561 5560 5559 5558 5558 5557 5556 5556 5555 5555 5555 5554 5554 5554 5553 5553 5552 5552 5551 5551 5551 5551 5551 5551 5551 5551 5550 5550 5550 5549 5549 5549 5548 5548 5547 5547 5546 5546 5545 5545 5544 5544 5543 5542
5618 5617 5615 5614 5613 5611 5610 5609 5607 5606 5604 5602 5601 5599 5597 5596 5595 5593 5592 5590 5588 5587 5585 5584 5583 5581 5580 5578 5577 5576 5574 5573 5571 5570 5569 5568 5567 5566 5564 5563 5562 5561 5560 5559 5559 5558 5557 5556 5555 5555 5554 5553 5553 5552 5552 5552 5552 5551 5550 5549 5549 5549 5549 5548 5548 5548 5548 5547 5547 5547 5546 5546 5545 5545 5544 5543 5543 5542 5541 5540 5540 5539 5538 5538 5537 5536 5535
5617 5615 5614 5612 5611 5609 5608 5607 5606 5604 5603 5601 5599 5598 5596 5595 5593 5592 5590 5588 5587 5585 5584 5582 5581 5579 5578 5577 5575 5574 5573 5572 5570 5569 5568 5566 5565 5564 5563 5562 5561 5560 5559 5558 5557 5556 5555 5554 5554 5553 5552 5551 5551 5550 5550 5550 5549 5548 5548 5547 5547 5546 5546 5546 5545 5545 5544 5544 5544 5543 5542 5541 5541 5540 5539 5539 5538 5537 5536 5535 5534 5533 5532 5531 5530 5529 5528
5615 5614 5612 5611 5609 5607 5605 5604 5603 5602 5601 5599 5598 5596 5595 5593 5592 5590 5589 5587 5585 5583 5582 5580 5579 5577 5576 5574 5573 5572 5571 5570 5568 5567 5566 5564 5563 5562 5561 5560 5559 5558 5557 5556 5555 5554 5553 5552 5552 5551 5550 5549 5548 5548 5547 5547 5547 5546 5545 5545 5544 5544 5544 5543 5542 5542 5541 5541 5540 5539 5538 5537 5536 5535 5535 5534 5533 5532 5531 5530 5529 5528 5527 5526 5525 5523 5522
5613 5612 5610 5609 5607 5605 5603 5602 5600 5600 5599 5597 5596 5594 5593 5591 5590 5588 5587 5585 5583 5581 5580 5578 5576 5575 5573 5571 5570 5569 5568 5567 5566 5565 5564 5562 5561 5560 5559 5558 5556 5555 5555 5554 5553 5552 5551 5550 5550 5549 5548 5547 5546 5545 5545 5545 5544 5544 5543 5542 5542 5541 5541 5540 5539 5539 5538 5537 5537 5536 5534 5533 5532 5531 5530 5529 5528 5527 5526 5525 5524 5523 5522 5521 5520 5519 5517
5611 5610 5608 5607 5605 5604 5602 5600 5598 5597 5596 5595 5593 5592 5590 5589 5588 5586 5584 5583 5581 5579 5577 5576 5574 5572 5570 5569 5567 5567 5566 5565 5564 5563 5562 5560 5559 5558 5557 5556 5554 5553 5552 5551 5550 5550 5549 5548 5547 5547 5546 5545 5544 5543 5543 5542 5542 5541 5541 5540 5539 5539 5538 5537 5537 5536 5535 5534 5533 5532 5531 5530 5528 5527 5526 5525 5524 5522 5521 5521 5520 5519 5518 5517 5516 5515 5514
5609 5607 5606 5605 5603 5602 5600 5598 5596 5595 5593 5592 5591 5589 5588 5586 5585 5583 5582 5580 5578 5577 5575 5573 5571 5569 5568 5566 5565 5564 5563 5562 5561 5560 5559 5558 5557 5556 5555 5553 5552 5551 5550 5549 5548 5548 5547 5546 5545 5544 5544 5543 5542 5541 5540 5540 5539 5539 5538 5538 5537 5536 5535 5535 5534 5533 5532 5531 5530 5529 5528 5526 5525 5523 5522 5521 5520 5519 5518 5517 5516 5516 5515 5514 5513 5512 5511
5606 5605 5604 5602 5601 5599 5597 5595 5594 5593 5591 5590 5588 5587 5585 5584 5582 5580 5579 5577 5576 5574 5572 5571 5569 5567 5565 5563 5562 5561 5560 5559 5558 5557 5557 5556 5555 5554 5553 5551 5550 5549 5548 5547 5546 5545 5544 5543 5542 5542 5541 5540 5539 5539 5538 5537 5537 5536 5536 5535 5534 5533 5532 5532 5531 5530 5529 5528 5527 5526 5524 5523 5522 5520 5519 5518 5517 5516 5516 5515 5514 5513 5513 5512 5511 5510 5509
5603 5602 5601 5600 5599 5597 5595 5593 5592 5590 5589 5588 5586 5585 5583 5581 5579 5578 5576 5574 5573 5571 5570 5568 5566 5565 5563 5561 5559 5558 5557 5556 5555 5554 5553 5552 5551 5550 5550 5549 5548 5546 5546 5545 5544 5543 5542 5541 5540 5539 5538 5537 5536 5536 5535 5535 5534 5534 5533 5532 5531 5530 5530 5529 5528 5527 5526 5525 5524 5523 5521 5520 5519 5518 5517 5516 5515 5515 5514 5513 5512 5512 5511 5510 5509 5508 5507
5601 5600 5598 5597 5596 5594 5592 5590 5589 5588 5586 5585 5584 5582 5580 5578 5576 5575 5573 5572 5570 5569 5567 5565 5564 5562 5561 5559 5557 5556 5555 5554 5552 5551 5550 5549 5548 5547 5546 5546 5545 5544 5543 5542 5541 5540 5540 5539 5538 5537 5535 5535 5534 5533 5532 5532 5531 5531 5530 5529 5528 5528 5527 5526 5525 5525 5524 5522 5521 5520 5518 5517 5516 5515 5515 5514 5513 5513 5512 5511 5511 5510 5509 5508 5507 5506 5505
5598 5597 5596 5594 5593 5591 5589 5588 5587 5585 5584 5582 5581 5579 5577 5575 5574 5572 5571 5569 5568 5566 5565 5563 5561 5560 5559 5557 5555 5554 5553 5551 5550 5549 5548 5546 5545 5544 5543 5542 5542 5541 5540 5539 5539 5538 5537 5536 5536 5535 5534 5533 5532 5531 5530 5529 5529 5528 5527 5526 5525 5525 5524 5523 5523 5522 5521 5519 5518 5517 5516 5515 5514 5513 5513 5512 5512 5511 5511 5510 5509 5508 5507 5506 5505 5504 5503
5595 5594 5592 5591 5590 5588 5586 5585 5584 5582 5581 5580 5578 5576 5574 5573 5571 5570 5568 5566 5565 5564 5562 5560 5559 5558 5556 5555 5553 5552 5550 5549 5548 5546 5545 5544 5542 5541 5540 5539 5538 5538 5537 5536 5535 5535 5534 5534 5533 5532 5531 5531 5529 5528 5527 5527 5526 5525 5524 5524 5523 5522 5521 5521 5520 5519 5518 5517 5516 5514 5513 5513 5512 5511 5511 5510 5510 5510 5509 5508 5508 5507 5506 5505 5504 5502 5501
5592 5591 5589 5588 5587 5585 5583 5582 5581 5580 5578 5577 5575 5573 5572 5570 5569 5567 5566 5564 5563 5562 5560 5558 5557 5555 5554 5553 5551 5550 5548 5547 5545 5544 5543 5541 5540 5538 5537 5536 5535 5534 5533 5533 5532 5532 5531 5531 5530 5530 5529 5528 5527 5525 5525 5524 5523 5522 5522 5521 5520 5519 5519 5518 5517 5516 5515 5514 5513 5512 5511 5510 5510 5510 5509 5509 5508 5508 5508 5507 5506 5505 5504 5503 5502 5501 5500
5589 5588 5587 5585 5584 5582 5581 5579 5578 5577 5575 5574 5572 5570 5569 5568 5566 5565 5563 5562 5561 5559 5558 5556 5555 5553 5552 5550 5549 5548 5546 5545 5543 5542 5541 5539 5538 5536 5535 5533 5532 5531 5531 5530 5529 5529 5528 5528 5528 5527 5526 5525 5524 5523 5522 5521 5520 5519 5519 5518 5517 5516 5516 5515 5514 5514 5513 5512 5511 5510 5509 5509 5508 5508 5507 5507 5507 5507 5506 5505 5504 5503 5502 5502 5501 5500 5499
5586 5585 5583 5582 5581 5579 5578 5576 5575 5574 5572 5571 5569 5568 5567 5565 5564 5563 5562 5560 5559 5558 5556 5555 5553 5551 5550 5548 5547 5545 5544 5542 5541 5540 5539 5537 5536 5534 5533 5531 5530 5529 5528 5527 5526 5525 5525 5525 5525 5524 5523 5522 5521 5520 5519 5518 5517 5517 5516 5515 5514 5514 5513 5513 5512 5511 5511 5510 5509 5508 5507 5507 5506 5506 5506 5505 5505 5505 5504 5504 5503 5502 5501 5500 5499 5498 5498
5582 5581 5580 5579 5577 5576 5575 5573 5572 5571 5570 5568 5567 5566 5564 5563 5562 5561 5560 5558 5557 5555 5554 5552 5551 5549 5547 5546 5545 5543 5541 5540 5539 5537 5536 5535 5533 5532 5530 5529 5528 5527 5526 5524 5523 5522 5522 5522 5522 5521 5520 5519 5518 5517 5516 5515 5515 5514 5513 5512 5512 5511 5511 5510 5510 5509 5509 5508 5507 5506 5505 5505 5505 5504 5504 5504 5504 5503 5503 5502 5501 5500 5499 5499 5498 5498 5497
5579 5578 5577 5575 5574 5573 5572 5570 5569 5568 5567 5566 5565 5564 5563 5561 5560 5559 5557 5556 5555 5553 5551 5550 5548 5546 5544 5543 5542 5540 5539 5537 5536 5535 5533 5532 5530 5529 5528 5526 5525 5524 5523 5522 5521 5520 5519 5519 5518 5518 5517 5516 5515 5514 5513 5513 5512 5511 5510 5509 5509 5508 5508 5508 5507 5507 5506 5506 5505 5504 5504 5503 5503 5503 5503 5502 5502 5502 5501 5501 5500 5499 5498 5498 5498 5497 5497
5576 5575 5574 5572 5571 5570 5569 5568 5567 5566 5565 5564 5563 5562 5561 5559 5558 5556 5555 5554 5552 5551 5549 5547 5545 5544 5542 5540 5539 5538 5536 5534 5533 5532 5530 5529 5527 5526 5525 5524 5522 5521 5520 5519 5518 5517 5516 5515 5515 5514 5514 5513 5512 5511 5511 5510 5509 5508 5507 5507 5506 5506 5505 5505 5504 5504 5504 5503 5503 5502 5502 5501 5501 5501 5501 5501 5500 5500 5500 5499 5499 5498 5498 5498 5497 5497 5496
5573 5572 5571 5569 5567 5567 5566 5565 5564 5563 5562 5561 5560 5559 5558 5557 5556 5554 5553 5552 5550 5549 5547 5545 5543 5541 5539 5538 5536 5535 5533 5532 5530 5529 5528 5526 5524 5523 5522 5521 5520 5518 5517 5516 5515 5514 5513 5512 5511 5511 5510 5509 5509 5508 5508 5507 5506 5505 5504 5504 5503 5503 5502 5502 5502 5501 5501 5501 5501 5500 5500 5499 5499 5499 5499 5499 5499 5499 5498 5498 5498 5497 5497 5497 5497 5496 5496
5570 5569 5567 5565 5564 5563 5563 5562 5562 5561 5560 5559 5558 5557 5556 5555 5553 5552 5551 5549 5548 5546 5544 5542 5540 5539 5537 5535 5534 5532 5530 5529 5527 5526 5525 5523 5521 5520 5519 5518 5517 5515 5514 5512 5512 5511 5510 5509 5508 5507 5506 5506 5505 5505 5505 5504 5503 5502 5501 5501 5500 5500 5499 5499 5499 5499 5498 5498 5498 5498 5497 5497 5497 5498 5498 5498 5498 5497 5497 5497 5497 5496 5496 5496 5496 5496 5496
5567 5565 5563 5562 5561 5560 5560 5559 5559 5558 5557 5557 5556 5555 5553 5552 5550 5549 5548 5547 5545 5543 5541 5539 5538 5536 5535 5533 5531 5529 5527 5526 5524 5523 5522 5520 5518 5517 5516 5515 5514 5512 5511 5509 5508 5507 5507 5506 5505 5504 5503 5503 5502 5502 5501 5501 5500 5499 5498 5498 5497 5497 5497 5496 5496 5496 5496 5496 5496 5496 5495 5495 5495 5496 5496 5496 5496 5496 5496 5496 5495 5495 5496 5496 5496 5495 5496
5564 5561 5559 5558 5557 5557 5557 5557 5556 5555 5554 5554 5553 5552 5551 5549 5548 5546 5545 5544 5542 5540 5539 5537 5535 5533 5532 5530 5528 5527 5525 5523 5521 5520 5519 5517 5515 5514 5513 5512 5510 5509 5508 5506 5505 5504 5503 5502 5501 5500 5500 5499 5499 5498 5498 5497 5497 5496 5495 5495 5494 5494 5494 5494 5494 5493 5493 5493 5493 5493 5493 5493 5493 5494 5494 5494 5494 5494 5494 5494 5494 5494 5495 5495 5495 5495 5495
5560 5558 5556 5555 5553 5553 5553 5554 5553 5552 5551 5550 5550 5549 5548 5546 5545 5544 5542 5541 5539 5537 5535 5534 5532 5530 5528 5527 5525 5523 5522 5520 5519 5517 5515 5514 5512 5510 5509 5508 5506 5505 5504 5503 5502 5500 5499 5499 5498 5497 5496 5495 5495 5495 5494 5494 5494 5493 5493 5492 5491 5491 5491 5491 5491 5491 5490 5490 5490 5491 5491 5491 5491 5491 5492 5492 5492 5493 5493 5493 5493 5493 5493 5494 5494 5494 5495
5555 5554 5553 5551 5550 5550 5550 5551 5550 5549 5549 5548 5547 5546 5545 5543 5542 5541 5539 5538 5536 5534 5532 5530 5528 5526 5525 5523 5522 5520 5518 5517 5515 5513 5512 5510 5508 5507 5506 5504 5503 5501 5500 5499 5498 5497 5495 5495 5494 5494 5493 5492 5491 5491 5490 5490 5490 5490 5490 5489 5489 5488 5488 5488 5488 5488 5488 5488 5488 5488 5488 5488 5489 5489 5490 5490 5490 5491 5491 5491 5491 5492 5492 5493 5493 5494 5494